Regional Weather Roundup
Issued by NWS

Home | Current Version | Previous Version | Text Only | Print | Product List | Glossary On
Versions: 1 2 3 4 5 6 7 8 9 10 11 12 13 14 15 16 17 18 19 20 21 22 23 24 25 26 27 28 29 30 31 32 33 34 35 36 37 38 39 40 41 42 43 44 45 46 47 48 49 50
000
ASUS44 KFWD 230315
RWRTX
NORTH TEXAS HOURLY WEATHER ROUNDUP
NATIONAL WEATHER SERVICE FORT WORTH TX
900 PM CST SAT NOV 22 2014

NOTE: "FAIR" INDICATES FEW OR NO CLOUDS BELOW 12,000 FEET WITH NO
SIGNIFICANT WEATHER AND/OR OBSTRUCTIONS TO VISIBILITY.

TXZ118-119-230400-
DALLAS/FORT WORTH METROPLEX

CITY           SKY/WX    TMP DP  RH WIND       PRES   REMARKS
DFW AIRPORT    CLOUDY    55  55 100 SE5       29.76F
DALLAS LOVE    CLOUDY    58  56  93 SE7       29.79F
FTW MEACHAM    CLOUDY    58  56  93 SW8       29.78F
DAL-EXECUTIVE  CLOUDY    59  56  89 CALM      29.80F
FTW-ALLIANCE   CLOUDY    58  57  97 CALM      29.76F
FTW-SPINKS     CLOUDY    57  55  95 SW7       29.80F
ARLINGTON      CLOUDY    57  54  89 SE13      29.77F
GRAND PRAIRIE  CLOUDY    57  57 100 SE6       29.80F
ADDISON        MOCLDY    59  57  94 SE8       29.77F
MESQUITE       CLOUDY    60  59  97 CALM      29.83R
LANCASTER      CLOUDY    58  56  91 CALM      29.81F
$$

TXZ091>094-102>105-117-120-121-131>134-230400-
NORTH CENTRAL TEXAS

CITY           SKY/WX    TMP DP  RH WIND       PRES   REMARKS
SHRMAN/DENISON CLOUDY    60  60 100 SE15      29.76F
GAINESVILLE    CLOUDY    58  57  96 SE10      29.75F
BOWIE          CLOUDY    55  55  98 SE9       29.73F
BRIDGEPORT     CLOUDY    56  56 100 SE9       29.77F
DECATUR        CLOUDY    56  55  97 SE7       29.76F
DENTON         CLOUDY    59  58  96 SE7       29.75F FOG
MCKINNEY       LGT RAIN  60  59  96 S9        29.80F
GREENVILLE     LGT RAIN  61  59  94 E9        29.76F
ROCKWALL       CLOUDY    60  60 100 CALM      29.79R FOG
TERRELL        CLOUDY    63  60  90 S3        29.82R
WAXAHACHIE     CLOUDY    57  57 100 W5        29.84R
CLEBURNE         N/A     57  57 100 CALM      29.82F
GRANBURY       RAIN      58  56  92 S7        29.82F
$$

TXZ083>090-098>101-113>116-127>130-139>142-154-155-230400-
WESTERN NORTH TEXAS

CITY           SKY/WX    TMP DP  RH WIND       PRES   REMARKS
WICHITA FALLS  CLOUDY    52  52 100 CALM      29.74F
WF-KICKAPOO    CLOUDY    54  54 100 CALM      29.75F
VERNON         PTCLDY    52  50  93 SW6       29.76F
ABILENE        CLOUDY    55  52  89 S8        29.76F
ABILENE-DYESS  CLOUDY    53  50  89 SW5       29.76F
BRECKENRIDGE   CLOUDY    58  55  91 N5        29.73S
GRAHAM         CLOUDY    56  55  98 SE8       29.73F
MINERAL WELLS  LGT RAIN N/A N/A N/A SE20      29.71F
STEPHENVILLE   CLOUDY    55  53  93 CALM      29.85F
COMANCHE       LGT RAIN  55  55 100 E8        29.79F
BROWNWOOD      CLOUDY    55  54  94 E14       29.73F
COLEMAN        CLOUDY    56  55  96 CALM      29.77R
BRADY          LGT RAIN  55  54  94 E6        29.80R
$$

TXZ143>147-156>162-174-175-230400-
CENTRAL TEXAS

CITY           SKY/WX    TMP DP  RH WIND       PRES   REMARKS
WACO           LGT RAIN  60  59  96 N13       29.81R
WACO-TSTC      LGT RAIN  61  59  94 N7        29.81S
WACO-MCGREGOR  CLOUDY    61  55  82 N14       29.81S
HILLSBORO      CLOUDY    58  55  91 NW5       29.83F
CORSICANA      RAIN      62  59  90 VRB6      29.79F FOG
MEXIA          TSTM      59  58  97 NE5       29.78F
HEARNE         CLOUDY    61  60  97 NE10      29.76F
CAMERON        RAIN      61  58  91 CALM      29.77S
TEMPLE         CLOUDY    59  55  88 NE10G18   29.74F THUNDER
KILLEEN        LGT RAIN  57  55  94 N23G40    29.81R VSB 3/4
KILLEEN-SKYLRK CLOUDY    61  54  77 N9        29.78R
FORT HOOD      HVY RAIN  61  55  82 NW23G38   29.81R
GATESVILLE     CLOUDY    57  55  94 N16G28    29.85R
LAMPASAS       CLOUDY    58  56  94 N13G22    29.81S
$$

TXZ095>097-106>112-122>126-135>138-148>153-164>167-230400-
EAST TEXAS

CITY           SKY/WX    TMP DP  RH WIND       PRES   REMARKS
PARIS          CLOUDY    59  55  88 CALM      29.86F
SULPHUR SPRNGS LGT RAIN  61  61  99 E5        29.85F
MOUNT PLEASANT CLOUDY    62  61  97 E8        29.86S
MINEOLA        RAIN      63  63 100 CALM      29.85F
TYLER          HVY RAIN  61  58  90 NW7       29.82F FOG
LONGVIEW       TSTM      62  60  93 E13       29.82F FOG
MARSHALL       CLOUDY    61  58  92 E7        29.86F
ATHENS         RAIN      59  57  94 E3        29.80F
PALESTINE      DRIZZLE   61  60  96 N5        29.83S
JACKSONVILLE   LGT RAIN  64  61  93 SE12G17   29.79F
HENDERSON      RAIN      62  61  97 SE13G28   29.82F
NACOGDOCHES    CLOUDY    63  61  94 E12G17    29.78F
LUFKIN         LGT RAIN  67  63  87 SE17      29.77F
$$

SUPPLEMENTAL OBSERVATIONS (CENTRAL)

CITY           SKY/WX    TMP DP  RH WIND       PRES   REMARKS
LAKE TEXOMA      N/A     61  57  88 SE13        N/A
CADDO GRASSLND   N/A     59  55  88 SE8         N/A
ATHENS           N/A     61  57  88 E5          N/A
PALESTINE        N/A     63  59  88 NW5         N/A
LAKE LIMESTONE   N/A     61  57  88 NE12        N/A
MCGREGOR         N/A     61  59  94 N10G18      N/A
TEMPLE           N/A     61  57  88 NE14G25     N/A
$$

SUPPLEMENTAL OBSERVATIONS (WEST)

CITY           SKY/WX    TMP DP  RH WIND       PRES   REMARKS
MILLERS CREEK    N/A     54  50  87 S6          N/A
POSSUM KINGDOM   N/A     55  52  88 NE7G15      N/A
LBJ GRASSLAND    N/A     55  52  88 SE5         N/A
GRANBURY         N/A     57  54  88 S7          N/A
COMANCHE         N/A     55  54  94 SE14        N/A
HAMBY            N/A     54  50  87 S6G15       N/A
IVIE RESERVOIR   N/A     55  52  88 S8          N/A
COLORADO BEND    N/A     55  52  88 NE9G20      N/A
$$

SUPPLEMENTAL OBSERVATIONS (EAST)

CITY           SKY/WX    TMP DP  RH WIND       PRES   REMARKS
TEXARKANA        N/A     63  57  82 SE5         N/A
LINDEN           N/A     61  57  88 E3          N/A
CADDO LAKE       N/A     61  59  94 E2          N/A
LUFKIN           N/A     64  61  88 MISG        N/A
N SABINE NF      N/A     61  57  88 MISG        N/A
$$

SUPPLEMENTAL OBSERVATIONS ARE A COLLECTION OF AUTOMATED INSTRUMENTS
THAT ARE MAINTAINED BY A VARIETY OF FEDERAL AND STATE AGENCIES.
CERTAIN ELEMENTS...SUCH AS HUMIDITY VALUES AND SUSTAINED WIND
SPEEDS...MAY BE APPROXIMATED.



USA.gov is the U.S. government's official web portal to all federal, state and local government web resources and services.